Weather History for Harrison, AR

Change the Weather History Date:

Wednesday, April 10, 2013

  Actual Average Record
Temperature  
Mean Temperature 59 °F 56 °F  
Max Temperature 78 °F 68 °F 96 °F (1930)
Min Temperature 39 °F 45 °F 25 °F (1928)
Degree Days  
Heating Degree Days 6 9  
Month to date heating degree days 98 105  
Since 1 July heating degree days 3651 3785  
Cooling Degree Days 0 1  
Month to date cooling degree days 7 10  
Year to date cooling degree days 14 16  
Growing Degree Days 8 (Base 50)    
Moisture  
Dew Point 50 °F    
Average Humidity 74    
Maximum Humidity 93    
Minimum Humidity 54    
Precipitation  
Precipitation 0.58 in 0.14 in 2.62 in (2008)
Month to date precipitation 0.86 1.25  
Year to date precipitation 10.08 10.24  
Snow  
Snow 0.00 in 0.00 in 2.00 in (1988)
Month to date snowfall T 0.3  
Since 1 July snowfall 4.6 11.5  
Snow Depth 0.00 in    
Sea Level Pressure  
Sea Level Pressure 29.75 in    
Wind  
Wind Speed 12 mph (West)    
Max Wind Speed 25 mph    
Max Gust Speed 33 mph    
Visibility 9 miles    
Events Rain , Thunderstorm    
T = Trace of Precipitation, MM = Missing Value Source: NWS Daily Summary

Daily Weather History Graph

Daily Weather History Graph

Search for Another Location

Airport:

Trip Planner

Search our weather history database for the weather conditions in past years. The results will help you decide how hot, cold, wet, or windy it might be!

Date:

Astronomy

Apr. 10, 2013 Rise Set
Actual Time 6:45 AM CDT 7:42 PM CDT
Civil Twilight 6:19 AM CDT 8:08 PM CDT
Nautical Twilight 5:48 AM CDT 8:40 PM CDT
Astronomical Twilight 5:16 AM CDT 9:12 PM CDT
Moon 6:43 AM CDT (4/10) 8:16 PM CDT (4/10)
Length of Visible Light 13h 49m
Length of Day
12h 56m
New Moon, 0% of the Moon is Illuminated
Apr 10
New Moon
Apr 18
First Quarter
Apr 25
Full
May 2
Last Quarter
May 9
New

Hourly Weather History & Observations

Time (CDT) Temp. Windchill Dew Point Humidity Pressure Visibility Wind Dir Wind Speed Gust Speed Precip Events Conditions
12:53 AM 73.0 °F - 62.1 °F 68% 29.75 in 10.0 mi South 16.1 mph - N/A   Mostly Cloudy
1:53 AM 73.0 °F - 62.1 °F 68% 29.74 in 10.0 mi South 15.0 mph 21.9 mph N/A   Mostly Cloudy
2:53 AM 73.0 °F - 62.1 °F 68% 29.73 in 10.0 mi South 13.8 mph 26.5 mph N/A   Overcast
3:53 AM 73.0 °F - 61.0 °F 66% 29.73 in 10.0 mi South 16.1 mph 24.2 mph N/A   Overcast
4:53 AM 72.0 °F - 61.0 °F 68% 29.75 in 10.0 mi South 10.4 mph - N/A   Overcast
5:53 AM 71.1 °F - 62.1 °F 73% 29.73 in 10.0 mi South 13.8 mph - N/A   Overcast
6:53 AM 70.0 °F - 62.1 °F 76% 29.76 in 10.0 mi SSE 12.7 mph - 0.00 in Rain Light Rain
7:26 AM 71.6 °F - 62.6 °F 73% 29.81 in 10.0 mi South 10.4 mph 16.1 mph N/A   Mostly Cloudy
7:49 AM 71.6 °F - 62.6 °F 73% 29.81 in 10.0 mi South 9.2 mph - N/A   Overcast
7:53 AM 72.0 °F - 62.1 °F 71% 29.77 in 10.0 mi SSW 10.4 mph - N/A   Overcast
8:44 AM 64.4 °F - 57.2 °F 77% 29.82 in 10.0 mi WNW 10.4 mph - N/A   Overcast
8:53 AM 63.0 °F - 57.0 °F 81% 29.79 in 10.0 mi NW 10.4 mph - N/A   Overcast
9:11 AM 62.6 °F - 55.4 °F 77% 29.82 in 10.0 mi NNW 8.1 mph - N/A   Overcast
9:53 AM 66.0 °F - 57.0 °F 73% 29.77 in 10.0 mi Calm Calm - N/A   Scattered Clouds
10:53 AM 78.1 °F - 60.1 °F 54% 29.75 in 10.0 mi South 18.4 mph 25.3 mph N/A   Mostly Cloudy
11:53 AM 69.1 °F - 57.0 °F 65% 29.75 in 10.0 mi Variable 6.9 mph - N/A   Overcast
12:53 PM 68.0 °F - 57.0 °F 68% 29.73 in 10.0 mi NW 6.9 mph - N/A   Overcast
1:53 PM 69.1 °F - 57.0 °F 65% 29.71 in 10.0 mi NNW 6.9 mph - N/A   Overcast
2:53 PM 70.0 °F - 57.9 °F 65% 29.67 in 10.0 mi NW 13.8 mph - N/A   Overcast
3:53 PM 57.9 °F - 50.0 °F 75% 29.64 in 10.0 mi NW 15.0 mph 24.2 mph N/A   Mostly Cloudy
4:26 PM 50.0 °F - 46.4 °F 87% 29.70 in 8.0 mi NW 15.0 mph 27.6 mph 0.05 in Rain , Thunderstorm Light Rain
4:33 PM 50.0 °F - 46.4 °F 87% 29.68 in 7.0 mi NW 18.4 mph 23.0 mph 0.07 in Rain , Thunderstorm Rain
4:43 PM 48.2 °F - 46.4 °F 93% 29.73 in 10.0 mi WNW 21.9 mph 33.4 mph 0.07 in Rain , Thunderstorm Light Rain
4:53 PM 46.9 °F - 44.1 °F 90% 29.74 in 10.0 mi WNW 23.0 mph 33.4 mph 0.08 in Rain Light Rain
5:08 PM 44.6 °F 36.4 °F 42.8 °F 93% 29.76 in 10.0 mi West 20.7 mph 33.4 mph 0.01 in Rain , Thunderstorm Rain
5:17 PM 44.6 °F 37.8 °F 41.0 °F 87% 29.78 in 3.0 mi West 15.0 mph 27.6 mph 0.05 in Rain , Thunderstorm Heavy Rain
5:26 PM 44.6 °F 38.4 °F 42.8 °F 93% 29.79 in 2.0 mi WNW 12.7 mph 23.0 mph 0.12 in Rain , Thunderstorm Heavy Thunderstorms and Rain
5:31 PM 44.6 °F 39.7 °F 42.8 °F 93% 29.77 in 1.8 mi NW 9.2 mph 23.0 mph 0.15 in Rain , Thunderstorm Heavy Thunderstorms and Rain
5:47 PM 44.6 °F 39.2 °F 42.8 °F 93% 29.71 in 3.0 mi NW 10.4 mph - 0.31 in Rain , Thunderstorm Thunderstorms and Rain
5:53 PM 44.1 °F 38.1 °F 42.1 °F 93% 29.70 in 5.0 mi NW 11.5 mph - 0.33 in Rain , Thunderstorm Thunderstorms and Rain
6:16 PM 42.8 °F 35.4 °F 41.0 °F 93% 29.78 in 6.0 mi WNW 15.0 mph 25.3 mph 0.04 in Rain Rain
6:35 PM 42.8 °F 36.6 °F 41.0 °F 93% 29.75 in 4.0 mi NW 11.5 mph - 0.10 in Rain , Thunderstorm Rain
6:48 PM 42.8 °F 35.8 °F 41.0 °F 93% 29.75 in 9.0 mi WNW 13.8 mph 17.3 mph 0.12 in Rain Light Rain
6:53 PM 42.1 °F 35.2 °F 39.9 °F 92% 29.74 in 10.0 mi WNW 12.7 mph - 0.12 in Rain Light Rain
7:33 PM 42.8 °F 37.5 °F 39.2 °F 87% 29.74 in 10.0 mi NW 9.2 mph - 0.02 in Rain Light Rain
7:53 PM 41.0 °F 33.5 °F 39.9 °F 96% 29.71 in 9.0 mi NW 13.8 mph 20.7 mph 0.03 in Rain Light Rain
8:53 PM 41.0 °F 33.5 °F 39.0 °F 93% 29.75 in 10.0 mi WNW 13.8 mph 20.7 mph 0.02 in   Overcast
9:53 PM 39.9 °F 31.4 °F 37.9 °F 93% 29.78 in 10.0 mi WNW 16.1 mph 24.2 mph N/A   Overcast
10:53 PM 39.0 °F 33.4 °F 37.0 °F 93% 29.81 in 10.0 mi WNW 8.1 mph 17.3 mph N/A   Overcast
11:53 PM 39.0 °F 32.3 °F 37.0 °F 93% 29.83 in 10.0 mi WNW 10.4 mph 19.6 mph N/A   Overcast